Regional Weather Roundup
Issued by NWS

Home | Current Version | Previous Version | Graphics & Text | Print | Product List | Glossary On
Versions: 1 2 3 4 5 6 7 8 9 10 11 12 13 14 15 16 17 18 19 20 21 22 23 24 25 26 27 28 29 30 31 32 33 34 35 36 37 38 39 40 41 42 43 44 45 46 47 48 49 50
000
ASUS45 KCYS 021910
RWRWY

WYOMING REGIONAL WEATHER ROUNDUP
NATIONAL WEATHER SERVICE CHEYENNE WY
100 PM MDT THU JUL 02 2015

NOTE:  "FAIR" INDICATES FEW OR NO CLOUDS BELOW 12,000 FEET
WITH NO SIGNIFICANT WEATHER AND/OR OBSTRUCTIONS TO VISIBILITY.

WYZ001-022000-
YELLOWSTONE NATIONAL PARK

CITY           SKY/WX    TMP DP  RH WIND       PRES   REMARKS
LK YELLOWSTONE   N/A     74  47  38 VRB6      30.36S
W YELLOWSTONE  NOT AVBL

$$
WYZ002>013-054>058-071-098>099-022000-
NORTHERN WYOMING

CITY           SKY/WX    TMP DP  RH WIND       PRES   REMARKS
JACKSON        FAIR      81  52  36 SW8       30.23F
CODY           FAIR      75  52  43 NE5       30.21S
GREYBULL       FAIR      84  50  30 VRB5      30.10F
WORLAND        FAIR      81  54  39 W7        30.13F
SHERIDAN       FAIR      80  54  40 W6        30.16F
BUFFALO        PTSUNNY   72  54  53 N9        30.22F
GILLETTE       PTSUNNY   75  56  51 N14G20    30.17F
HULETT         MOCLDY    72  55  56 NW8       30.18
NEWCASTLE      FAIR      73  52  46 NW17G23   30.16

$$
WYZ014>020-022>026-101>103-022000-
CENTRAL WYOMING

CITY           SKY/WX    TMP DP  RH WIND       PRES   REMARKS
BIG PINEY      FAIR      80  48  32 S9        30.29F
PINEDALE       FAIR      79  45  29 W7        30.30F
DUBOIS         FAIR      73  46  38 SE13G20   30.28  THUNDER
LANDER         FAIR      80  53  39 E7        30.21F
RIVERTON       FAIR      78  49  35 E9        30.21F
CASPER         PTSUNNY   81  50  33 VRB6      30.20F
DOUGLAS        FAIR      81  51  35 N8        30.19S

$$
WYZ021-027>030-104>119-022000-
SOUTHERN WYOMING

CITY           SKY/WX    TMP DP  RH WIND       PRES   REMARKS
EVANSTON       FAIR      85  39  19 W9        30.28F
KEMMERER       FAIR      82  36  18 S6        30.30
FORT BRIDGER   FAIR      86  40  20 NW5       30.30F
ROCK SPRINGS   FAIR      82  50  32 E10       30.26F
DIXON          FAIR      82  48  29 S5        30.25
RAWLINS        FAIR      77  52  41 CALM      30.29S
SARATOGA       FAIR      77  48  36 N8        30.29
LARAMIE        FAIR      74  49  41 SE3       30.31S
CHEYENNE       FAIR      77  48  35 NE7       30.25S
TORRINGTON     CLOUDY    81  52  36 N8        30.12F
PINE BLUFFS    FAIR      79  45  29 N6        30.19

$$



USA.gov is the U.S. government's official web portal to all federal, state and local government web resources and services.